Flag for U.S.A. Weather past 2 weeks in Jefferson City, Missouri, U.S.A.

Now
48 °F

Clear.


Feels Like: 48 °F
Forecast: 49 / 76 °F
Wind: No wind

Location: Jefferson City Memorial Airport

Current Time: Apr 1, 2015 at 1:55:08 AM

Latest Report: Apr 1, 2015 at 12:53 AM


Visibility: 10 mi

Pressure: 29.94 "Hg

Humidity: 63%

Dew point: 36 °F

Location of Jefferson CityLocation

Historic Weather in Jefferson City — Graph

°F

Jefferson City temperature yesterday

Maximum temperature yesterday: 76 °F (at 4:53 PM)
Minimum temperature yesterday: 42 °F (at 5:53 AM)
Average temperature yesterday: 59 °F

Past Weeks' High & Low Weather Summary

 TemperatureHumidityPressure
High76 °F (Mar 31, 4:53 PM)100% (Mar 21, 6:53 AM)30.33 "Hg (Mar 21, 6:53 AM)
Low32 °F (Mar 28, 7:53 AM)17% (Mar 31, 1:53 PM)29.71 "Hg (Mar 24, 7:53 PM)
Average48 °F65%30.07 "Hg
* Reported Mar 17 12:53 AM — Apr 1 12:53 AM, Jefferson City, Weather by CustomWeather, © 2015

Note: Actual official high and low records may vary slightly from our data, if they occured in-between our weather recording intervals... More about our weather records

Advertising

Jefferson City weather history for previous 24 hours

 ConditionsComfort  
Time TempWeatherWind HumidityBarometerVisibility
12:53 AM
Wed, Apr 1
48 °FClear.No wind63%29.94 "Hg10 mi
11:53 PM
Tue, Mar 31
51 °FClear.No wind59%29.94 "Hg10 mi
10:53 PM51 °FClear.No wind56%29.93 "Hg10 mi
9:53 PM54 °FClear.No wind51%29.93 "Hg10 mi
8:53 PM61 °FClear.5 mph35%29.91 "Hg10 mi
7:53 PM72 °FSunny.6 mph19%29.89 "Hg10 mi
6:53 PM74 °FSunny.6 mph18%29.88 "Hg10 mi
5:53 PM75 °FSunny.6 mph18%29.88 "Hg10 mi
4:53 PM76 °FSunny.No wind18%29.88 "Hg10 mi
3:53 PM75 °FSunny.5 mph18%29.89 "Hg10 mi
2:53 PM74 °FSunny.6 mph18%29.92 "Hg10 mi
1:53 PM74 °FSunny.3 mph17%29.94 "Hg10 mi
12:53 PM73 °FSunny.8 mph19%29.96 "Hg10 mi
11:53 AM71 °FSunny.9 mph21%29.97 "Hg10 mi
10:53 AM67 °FSunny.7 mph26%29.98 "Hg10 mi
9:53 AM61 °FSunny.N/A46%29.96 "Hg10 mi
8:53 AM52 °FLight rain. Sunny.No wind66%29.96 "Hg10 mi
7:53 AM44 °FClear.No wind76%29.94 "Hg10 mi
6:53 AM43 °FClear.N/A74%29.92 "Hg10 mi
5:53 AM42 °FClear.No wind73%29.90 "Hg10 mi
4:53 AM43 °FClear.No wind71%29.89 "Hg10 mi
3:53 AM43 °FClear.No wind71%29.88 "Hg10 mi
2:53 AM46 °FClear.No wind61%29.89 "Hg10 mi
1:53 AM49 °FClear.3 mph52%29.90 "Hg10 mi
Weather by CustomWeather, © 2015

See weather overviewHow to use our weather pages